Weather Roundup
Issued by NWS Chicago, IL

Home | Current Version | Previous Version | Text Only | Print | Product List | Glossary Off
Versions: 1 2 3 4 5 6 7 8 9 10 11 12 13 14 15 16 17 18 19 20 21 22 23 24 25 26 27 28 29 30 31 32 33 34 35 36 37 38 39 40 41 42 43 44 45 46 47 48 49 50

000
NZUS59 KLOT 230512
HRRLOT

CHICAGO AREA WEATHER ROUNDUP
NATIONAL WEATHER SERVICE CHICAGO/ROMEOVILLE IL
1100 PM CST SUN JAN 22 2017

NOTE: "FAIR" INDICATES FEW OR NO CLOUDS BELOW 12,000 FEET WITH NO
SIGNIFICANT WEATHER AND/OR OBSTRUCTIONS TO VISIBILITY.

* THESE STATIONS ARE NOT UNDER NWS QUALITY CONTROL. THEY ALSO MAY NOT
  REPORT WEATHER SUCH AS PRECIPITATION OR FOG.

ILZ005-006-012>014-019>023-230600-
NORTHEAST ILLINOIS

CITY           SKY/WX    TMP DP  RH WIND       PRES   REMARKS
OHARE          CLOUDY    40  37  89 N9        29.69R
MIDWAY         CLOUDY    41  35  79 N8        29.68S
AURORA         CLOUDY    38  35  89 NW6       29.71R
LANSING*       CLOUDY    39  38  97 N3        29.68R
JOLIET*        CLOUDY    41  39  93 NW5       29.69S FOG
WAUKEGAN       FOG       37  36  96 NE9       29.71R VSB 1/4
DUPAGE AIRPORT CLOUDY    39  35  86 N8        29.70R
WHEELING       CLOUDY    40  37  89 N9        29.71S
KANKAKEE*      CLOUDY    41  37  88 N8        29.67F
MORRIS*        CLOUDY    38  37  94 N5        29.69S FOG
LEWIS AIRPORT* CLOUDY    40  39  96 N9        29.68S
NORTHERLY ISL    N/A     39  38  96 N12         N/A
$$

WIZ051-052-058>065-066-070>072-230600-
SOUTHEAST WISCONSIN

CITY           SKY/WX    TMP DP  RH WIND       PRES   REMARKS
MILWAUKEE      CLOUDY    39  34  82 NW3       29.72R
KENOSHA*       FOG       37  36  96 N5        29.71S VSB 1/2
RACINE*        FOG       37  36  96 E5        29.73R VSB 3/4
WAUKESHA       CLOUDY    34  34 100 NW3       29.73R FOG
WEST BEND      CLOUDY    36  36 100 CALM      29.72R FOG
$$

INZ001>003-010>013-019-020-230600-
NORTHWEST INDIANA

CITY           SKY/WX    TMP DP  RH WIND       PRES   REMARKS
GARY*          LGT RAIN  40  40 100 N9        29.68S
MICHIGAN CITY* NOT AVBL
RENSSELAER*    NOT AVBL
VALPARAISO     FOG       41  41 100 N6        29.66S VSB 1/4
$$

LMZ740>746-230600-
SOUTHERN LAKE MICHIGAN

STATION/POSITION TIME  SKY/WX   TEMP WIND        PRES    VSBY
                                AIR  DIR/SP/G
                 (UTC)          (F)  (DEG/KT/KT) (MB)    (MI)
HARRISON CRIB    0440            36  340/ 14/ 15   N/A
BURNHAM HARBOR   0500            38  360/ 12       N/A
CALUMET HARBOR   0448            36  330/  8/ 12 1004.8R
BURNS HARBOR     0440            36  360/  8/  9 1005.4S
MICHIGAN CITY    0440            35   10/  5/  6   N/A
$$

ABBREVIATIONS USED IN REMARKS
   TC - TEMPERATURE IN CELSIUS
  WCI - WIND CHILL INDEX
   HX - HEAT INDEX
  VSB - VISIBILITY
$$




USA.gov is the U.S. government's official web portal to all federal, state and local government web resources and services.